Location: Ellerstadt
(49.4644°N, 8.2615°E)
Time: 19:05:18
(UTC+00:00)

Vanguard 1 - Pass Details

Date: 20 June 2021
Orbit: 651 x 3832 km, 34.2° (Epoch: 27 July)

Event Time Altitude Azimuth Distance (km) Brightness Sun altitude
Rises 19:44:38 0° 222° (SW) 7,801 14.7 -1.8°
Reaches altitude 10° 19:50:27 10° 215° (SW) 6,902 14.3 -2.5°
Maximum altitude 20:10:28 39° 158° (SSE) 4,564 13.0 -4.8°
Drops below altitude 10° 20:25:51 10° 98° (E) 5,404 13.4 -6.5°
Sets 20:29:40 0° 91° (E) 6,032 13.7 -7.0°
